Regional Weather Roundup
Issued by NWS

Home | Current Version | Previous Version | Graphics & Text | Print | Product List | Glossary On
Versions: 1 2 3 4 5 6 7 8 9 10 11 12 13 14 15 16 17 18 19 20 21 22 23 24 25 26 27 28 29 30 31 32 33 34 35 36 37 38 39 40 41 42 43 44 45 46 47 48 49 50
000
ASUS43 KMPX 271801
RWRMN
WEATHER ROUNDUP FOR MINNESOTA
NATIONAL WEATHER SERVICE TWIN CITIES/CHANHASSEN MN
1200 PM CST THU NOV 27 2014


NOTE: "FAIR" INDICATES FEW OR NO CLOUDS BELOW 12,000 FEET WITH NO
SIGNIFICANT WEATHER AND/OR OBSTRUCTIONS TO VISIBILITY. N/A MEANS
CURRENT SKY AND/OR WEATHER CONDITIONS ARE NOT AVAILABLE.

MNZ060>063-068>070-271900-
   Twin Cities Metro

CITY           SKY/WX    TMP DP  RH WIND       PRES   REMARKS
TWIN CITIES    SUNNY      6  -4  63 CALM      30.49F
6HR MIN TEMP:  -4; 6HR MAX TEMP:   7;

ST PAUL        SUNNY      6  -4  63 W7        30.52F WCI  -6
CRYSTAL        SUNNY      6  -4  63 W3        30.48F
BLAINE         SUNNY      9  -2  61 CALM      30.48F
LAKEVILLE      SUNNY      5  -6  61 CALM      30.48F
EDEN PRAIRIE   SUNNY      7  -3  64 CALM      30.48F
6HR MIN TEMP:  -3; 6HR MAX TEMP:   8;

SOUTH ST PAUL  SUNNY      7  -5  58 W3        30.50F
LAKE ELMO      FAIR       9  -2  61 W3        30.49F
$$
MNZ001>005-007-008-013>017-022>024-027-028-271900-
   Northwest Minnesota

CITY           SKY/WX    TMP DP  RH WIND       PRES   REMARKS
BEMIDJI        SUNNY     -1 -12  61 SW3       30.40F
HALLOCK        SUNNY      3  -4  72 S14       30.40F WCI -15
ROSEAU         SUNNY      1  -6  71 SW9       30.41F WCI -14
WARROAD        SUNNY      0  -8  71 SW9       30.41F WCI -16
THIEF RVR FALL SUNNY     -2  -6  84 S7        30.41F WCI -16
CROOKSTON      SUNNY      0  -8  71 S9        30.45F WCI -16
FOSSTON        SUNNY      0  -9  65 S6        30.41F WCI -12
DETROIT LAKES  SUNNY      1  -4  78 SE6       30.40F WCI -10
MOORHEAD       SUNNY      1  -2  85 SE5       30.44F WCI  -8
PARK RAPIDS    SUNNY      2  -5  72 CALM      30.39F
MAHNOMEN       FAIR      -3  -8  78 S5        30.42F WCI -13
$$
MNZ006-009>011-018-025>026-271900-
   North Central Minnesota

CITY           SKY/WX    TMP DP  RH WIND       PRES   REMARKS
BAUDETTE       SUNNY     -2  -7  79 CALM      30.39F
FLAG ISLAND    SUNNY     -2  -8  78 S7        30.39F WCI -16
INTL FALLS     SUNNY      0  -7  72 W5        30.40F WCI -10
6HR MIN TEMP: -20; 6HR MAX TEMP:   0;

WASKISH        SUNNY     -2  -8  78 CALM      30.42F
BIG FORK       SUNNY      1  -8  66 S5        30.40F WCI  -8
LONGVILLE      SUNNY      1  -8  66 SW3       30.41F
GRAND RAPIDS   SUNNY      1  -6  71 CALM      30.39F
CRANE LAKE     FAIR       0  -9  65 N3        30.43F
ORR            SUNNY      0  -9  65 CALM      30.37F
COOK           SUNNY      0  -9  65 CALM      30.40F
WALKER         FAIR       0  -7  71 SW5       30.41F WCI -10
$$
MNZ012-019>021-037-271900-
   Northeast Minnesota

CITY           SKY/WX    TMP DP  RH WIND       PRES   REMARKS
DULUTH         SUNNY      4  -7  60 NW8       30.37F WCI  -9
6HR MIN TEMP:  -9; 6HR MAX TEMP:   4;

ELY            SUNNY      1  -9  60 CALM      30.37F
HIBBING        SUNNY      2  -8  63 NW3       30.39F
EVELETH        SUNNY      3  -8  60 W3        30.40F
DULUTH HARBOR  SUNNY      7  -6  56 CALM      30.48F
TWO HARBORS    SUNNY     10  -2  56 SW3       30.38F
SILVER BAY     SUNNY     10  -6  48 NW5       30.37F WCI   2
GRAND MARAIS     N/A     10  -5  50 N8G18     30.42S WCI  -2
G MARAIS ARPRT SUNNY      1  -9  60 NW7       30.30S WCI -11
$$
MNZ029>031-032-039>041-046>048-054>057-064-271900-
   West Central Minnesota

CITY           SKY/WX    TMP DP  RH WIND       PRES   REMARKS
FERGUS FALLS   SUNNY      3  -8  60 SE5       30.47F WCI  -6
WHEATON        SUNNY      0  -6  78 SE6       30.47F WCI -12
MORRIS         SUNNY      1  -6  71 S6        30.44F WCI -10
ALEXANDRIA     SUNNY      3  -7  63 SE5       30.40F WCI  -6
ELBOW LAKE     FAIR       1  -6  73 SE6       30.43F HAZE    WCI -10
WADENA         SUNNY      1  -6  71 CALM      30.40F
GLENWOOD       SUNNY      3  -8  60 SE3       30.41F
APPLETON       SUNNY      3  -8  60 S6        30.47F WCI  -8
BENSON         SUNNY      0  -6  78 SW7       30.45F WCI -13
ORTONVILLE     SUNNY      1  -8  66 S8        30.45F WCI -12
MADISON        SUNNY      3  -2  78 S7        30.47F WCI  -9
WILLMAR        FAIR       3  -6  66 S5        30.46F WCI  -6
$$
MNZ033>034-036-042>043-049>051-058-059-271900-
   Central Minnesota

CITY           SKY/WX    TMP DP  RH WIND       PRES   REMARKS
ST CLOUD       SUNNY      5  -6  60 N3        30.46F
6HR MIN TEMP:  -6; 6HR MAX TEMP:   5;

SAUK CENTRE    FAIR       2  -8  62 CALM      30.43F
PAYNESVILLE    SUNNY      0  -8  70 CALM      30.45F
AITKIN         SUNNY      7  -6  56 W5        30.41F WCI  -2
PINE RIVER     SUNNY      3  -6  66 SW5       30.44F WCI  -6
BRAINERD       SUNNY      1  -6  72 SW5       30.43F WCI  -9
STAPLES        SUNNY      1  -8  66 CALM      30.42F
LONG PRAIRIE   FAIR       3  -6  66 CALM      30.42F
LITTLE FALLS   SUNNY      3  -8  60 CALM      30.45F
LITCHFIELD     SUNNY      3  -4  72 CALM      30.46F
BUFFALO        SUNNY      4  -4  67 CALM      30.49F
MAPLE LAKE     SUNNY      4  -3  71 CALM      30.48F
$$
MNZ037-044-045-052-053-271900-
   East Central Minnesota

CITY           SKY/WX    TMP DP  RH WIND       PRES   REMARKS
PRINCETON      SUNNY      7  -4  61 CALM      30.46F
MORA             N/A    N/A N/A N/A MISG        N/A
CAMBRIDGE      SUNNY      7  -6  56 SW5       30.46F WCI  -2
RUSH CITY      MOSUNNY    6  -5  61 CALM      30.47F
MOOSE LAKE     SUNNY      5  -6  61 W3        30.42F
HINCKLEY       FAIR       9  -2  61 CALM      30.45F
CLOQUET        SUNNY      3  -8  60 W5        30.39F WCI  -6
MCGREGOR       SUNNY      5  -4  66 CALM      30.42F
$$
MNZ071>073-080-081-089-090-097-098-271900-
   Southwest Minnesota

CITY           SKY/WX    TMP DP  RH WIND       PRES   REMARKS
MONTEVIDEO     SUNNY      3  -4  72 S5        30.48F WCI  -6
GRANITE FALLS  SUNNY      0  -6  76 S5        30.50F WCI -10
CANBY          SUNNY      3  -5  70 SE7       30.45F WCI -10
MARSHALL       SUNNY      0  -9  65 S6        30.46F WCI -12
REDWOOD FALLS  SUNNY     -1  -7  75 SW7       30.49F WCI -14
OLIVIA         SUNNY      3  -4  72 CALM      30.47F
PIPESTONE      MOSUNNY    7  -4  61 S8        30.39F WCI  -6
WINDOM         SUNNY      1  -6  71 CALM      30.45F
WORTHINGTON    SUNNY      1  -2  85 SE6       30.44F WCI -10
JACKSON        SUNNY      1  -6  71 CALM      30.46F
TRACY          SUNNY      3  -4  72 SW3       30.46F
SLAYTON        SUNNY      4  -5  67 CALM      30.42F
$$
MNZ065>067-074>077-082>085-091>093-271900-
   South Central Minnesota

CITY           SKY/WX    TMP DP  RH WIND       PRES   REMARKS
MANKATO        SUNNY      0  -9  65 CALM      30.49F
NEW ULM        SUNNY     -6  -9  84 W3        30.49F
ST JAMES       SUNNY      0  -8  71 CALM      30.51F
FAIRMONT       SUNNY      1  -6  71 CALM      30.48F
GLENCOE        SUNNY      3  -3  74 CALM      30.49F
FARIBAULT      SUNNY      3  -6  66 CALM      30.48F
OWATONNA       SUNNY      0  -6  78 CALM      30.47F
WASECA         SUNNY      0  -8  71 CALM      30.50F
ALBERT LEA     SUNNY      0  -8  71 NW5       30.47F WCI -10
$$
MNZ078>079-086>088-094>096-271900-
   Southeast Minnesota

CITY           SKY/WX    TMP DP  RH WIND       PRES   REMARKS
ROCHESTER      SUNNY      2  -5  72 NW8       30.44F WCI -12
6HR MIN TEMP:  -8; 6HR MAX TEMP:   2;

RED WING         N/A      9  -6  52 NW5       30.49S WCI   0
STANTON        SUNNY      4  -5  67 W3        30.48F
DODGE CENTER   MOSUNNY    1  -4  78 NW7       30.44F WCI -11
WINONA         SUNNY     10   1  67 N3        30.48F
AUSTIN         SUNNY      0  -6  78 NW6       30.46F WCI -12
PRESTON        SUNNY      4  -3  70 NW7       30.44F WCI  -8
$$
ABBREVIATIONS USED IN REMARKS
   TC - TEMPERATURES IN CELSIUS
  WCI - WIND CHILL INDEX
   HX - HEAT INDEX
  VSB - VISIBILITY
$$



USA.gov is the U.S. government's official web portal to all federal, state and local government web resources and services.